Change the Weather History Date:

Sunday, September 8, 2013

  Actual Average Record
Temperature  
Mean Temperature 75 °F 65 °F  
Max Temperature 82 °F 76 °F 98 °F (1947)
Min Temperature 67 °F 53 °F 36 °F (1992)
Degree Days  
Heating Degree Days 0 3  
Month to date heating degree days 1 20  
Since 1 July heating degree days 35 51  
Cooling Degree Days 10 3  
Month to date cooling degree days 63 29  
Year to date cooling degree days 717 654  
Growing Degree Days 24 (Base 50)    
Moisture  
Dew Point 68 °F    
Average Humidity 81    
Maximum Humidity 90    
Minimum Humidity 70    
Precipitation  
Precipitation 0.00 in 0.10 in 2.88 in (1946)
Month to date precipitation T 0.78  
Year to date precipitation 20.42 20.17  
Snow  
Snow 0.00 in 0.00 in 0.00 in ()
Month to date snowfall 0.0 0.0  
Since 1 July snowfall 0.0 0.0  
Since 1 September snowfall 0.0 0.0  
Snow Depth 0.00 in    
Sea Level Pressure  
Sea Level Pressure 29.90 in    
Wind  
Wind Speed 11 mph (East)    
Max Wind Speed 18 mph    
Max Gust Speed 23 mph    
Visibility 10 miles    
Events      
T = Trace of Precipitation, MM = Missing Value Source: NWS Daily Summary

Daily Weather History Graph

Daily Weather History Graph

Search for Another Location

Airport or City:

Trip Planner

Search our weather history database for the weather conditions in past years. The results will help you decide how hot, cold, wet, or windy it might be!

Date:

Astronomy

Sep. 08, 2013 Rise Set
Actual Time 6:58 AM CDT 7:49 PM CDT
Civil Twilight 6:29 AM CDT 8:18 PM CDT
Nautical Twilight 5:55 AM CDT 8:52 PM CDT
Astronomical Twilight 5:19 AM CDT 9:28 PM CDT
Moon 10:25 AM CDT (9/8) 9:17 PM CDT (9/8)
Length of Visible Light 13h 48m
Length of Day
12h 50m
Waxing Crescent, 11% of the Moon is Illuminated
Sep 8
Waxing Crescent
Sep 12
First Quarter
Sep 19
Full
Sep 26
Last Quarter
Oct 4
New

Hourly Weather History & Observations

Time (CDT) Temp. Heat Index Dew Point Humidity Pressure Visibility Wind Dir Wind Speed Gust Speed Precip Events Conditions
12:56 AM 70.0 °F - 66.0 °F 87% 29.95 in 10.0 mi Calm Calm - N/A   Clear
1:56 AM 69.1 °F - 66.0 °F 90% 29.95 in 10.0 mi NNE 3.5 mph - N/A   Clear
2:56 AM 68.0 °F - 64.9 °F 90% 29.94 in 10.0 mi NE 5.8 mph - N/A   Clear
3:56 AM 68.0 °F - 64.9 °F 90% 29.93 in 10.0 mi East 4.6 mph - N/A   Clear
4:56 AM 69.1 °F - 64.9 °F 87% 29.93 in 10.0 mi East 4.6 mph - N/A   Scattered Clouds
5:56 AM 70.0 °F - 66.0 °F 87% 29.94 in 10.0 mi East 6.9 mph - N/A   Mostly Cloudy
6:56 AM 69.1 °F - 66.0 °F 90% 29.97 in 10.0 mi North 5.8 mph - N/A   Mostly Cloudy
7:56 AM 70.0 °F - 66.9 °F 90% 29.96 in 10.0 mi ENE 6.9 mph - N/A   Scattered Clouds
8:35 AM 71.6 °F - 66.2 °F 83% 29.97 in 10.0 mi East 11.5 mph - N/A   Scattered Clouds
8:56 AM 72.0 °F - 66.9 °F 84% 29.94 in 10.0 mi East 11.5 mph - N/A   Scattered Clouds
9:56 AM 73.9 °F - 68.0 °F 82% 29.93 in 10.0 mi SE 13.8 mph 21.9 mph N/A   Scattered Clouds
10:56 AM 78.1 °F - 70.0 °F 76% 29.95 in 10.0 mi ENE 8.1 mph - N/A   Mostly Cloudy
11:56 AM 80.1 °F 83.6 °F 71.1 °F 74% 29.94 in 10.0 mi East 11.5 mph - N/A   Scattered Clouds
12:03 PM 80.6 °F 83.9 °F 69.8 °F 70% 29.96 in 10.0 mi East 10.4 mph - N/A   Mostly Cloudy
12:56 PM 78.1 °F - 71.1 °F 79% 29.93 in 10.0 mi ESE 12.7 mph - N/A   Overcast
1:56 PM 79.0 °F - 71.1 °F 77% 29.91 in 9.0 mi ESE 12.7 mph - N/A   Overcast
2:56 PM 81.0 °F 84.9 °F 71.1 °F 72% 29.88 in 10.0 mi ESE 12.7 mph 19.6 mph N/A   Mostly Cloudy
3:56 PM 79.0 °F - 70.0 °F 74% 29.86 in 10.0 mi ESE 13.8 mph - N/A   Scattered Clouds
4:56 PM 79.0 °F - 70.0 °F 74% 29.83 in 10.0 mi SE 12.7 mph 20.7 mph N/A   Scattered Clouds
5:15 PM 80.6 °F 84.6 °F 71.6 °F 74% 29.85 in 10.0 mi ESE 13.8 mph - N/A   Mostly Cloudy
5:32 PM 78.8 °F - 69.8 °F 74% 29.84 in 9.0 mi ESE 15.0 mph - N/A   Scattered Clouds
5:56 PM 78.1 °F - 70.0 °F 76% 29.82 in 9.0 mi SE 13.8 mph - N/A   Mostly Cloudy
6:56 PM 78.1 °F - 70.0 °F 76% 29.81 in 9.0 mi SE 13.8 mph - N/A   Mostly Cloudy
7:56 PM 75.9 °F - 69.1 °F 79% 29.81 in 9.0 mi SE 16.1 mph - N/A   Overcast
8:56 PM 73.0 °F - 68.0 °F 84% 29.82 in 9.0 mi East 12.7 mph - N/A   Overcast
9:27 PM 73.4 °F - 68.0 °F 83% 29.85 in 8.0 mi East 10.4 mph - N/A   Overcast
9:56 PM 73.0 °F - 68.0 °F 84% 29.82 in 8.0 mi East 12.7 mph - N/A   Overcast
10:56 PM 72.0 °F - 68.0 °F 87% 29.81 in 8.0 mi East 12.7 mph - N/A   Overcast
11:56 PM 71.1 °F - 68.0 °F 90% 29.80 in 8.0 mi ESE 12.7 mph - N/A   Overcast